WR7DW-3 Weather Reports


time (UTC)temp
F
wind
direction
speed
knots
gust
knots
rain 1hr
in
rain 24hr
in
rain mn
in
humidity
%
barometer
mb
20260505035940 31 303 0.0 0.0 0.00 0.00 0.00 72 1007.9
20260505034440 31 161 0.0 0.0 0.00 0.00 0.00 74 1007.8
20260505031440 32 185 0.0 0.0 0.00 0.00 0.00 74 1007.4
20260505025940 32 228 0.0 0.0 0.00 0.00 0.00 73 1007.2
20260505024440 33 233 0.0 0.0 0.00 0.00 0.00 72 1007.0
20260505022940 34 354 0.0 0.0 0.00 0.00 0.00 70 1007.0
20260505021440 34 240 0.0 0.0 0.00 0.00 0.00 70 1007.0
20260505015940 36 57 0.0 0.0 0.00 0.00 0.00 68 1006.7
20260505014440 36 318 0.0 0.0 0.00 0.00 0.00 67 1006.7
20260505012940 37 182 0.0 0.0 0.00 0.00 0.00 66 1006.7
20260505005941 39 330 0.0 0.0 0.00 0.00 0.00 65 1006.5
20260505004440 38 326 0.0 0.0 0.00 0.00 0.00 66 1006.6
20260505002943 39 295 0.0 0.0 0.00 0.00 0.00 66 1006.4
20260505001441 37 227 0.0 0.0 0.00 0.00 0.00 68 1006.4
20260504235941 37 282 0.0 0.0 0.00 0.00 0.00 68 1006.5
20260504234441 38 293 0.0 0.0 0.00 0.00 0.00 66 1006.3
20260504232943 38 257 0.0 0.0 0.00 0.00 0.00 67 1006.5
20260504231441 37 276 0.0 0.0 0.00 0.00 0.00 68 1006.3
20260504225941 37 144 0.0 0.0 0.00 0.00 0.00 66 1006.0
20260504224441 37 310 0.0 0.0 0.00 0.00 0.00 67 1006.0
20260504222941 38 289 0.0 0.0 0.00 0.00 0.00 67 1005.7
20260504221441 39 235 0.0 0.0 0.00 0.00 0.00 67 1005.5
20260504215941 39 288 0.0 0.0 0.00 0.00 0.00 66 1005.7
20260504214441 40 290 0.0 0.0 0.00 0.00 0.00 65 1005.6
20260504212941 40 229 0.0 0.0 0.00 0.00 0.00 65 1005.3
20260504211441 41 237 0.0 0.0 0.00 0.00 0.00 63 1005.6
20260504205941 42 15 0.0 0.0 0.00 0.00 0.00 60 1005.4
20260504204441 41 99 0.0 0.0 0.00 0.00 0.00 64 1005.6
20260504202941 42 174 0.0 0.0 0.00 0.00 0.00 61 1005.4
20260504201441 43 130 0.0 0.0 0.00 0.00 0.00 59 1005.4
20260504195941 42 118 0.0 0.0 0.00 0.00 0.00 62 1005.4
20260504194441 42 190 0.0 0.0 0.00 0.00 0.00 62 1005.4
20260504192941 43 287 0.0 0.0 0.00 0.00 0.00 60 1005.6
20260504191441 42 199 0.0 0.0 0.00 0.00 0.00 61 1005.6
20260504185941 42 288 0.0 0.0 0.00 0.00 0.00 63 1005.6
20260504184441 41 206 0.0 0.0 0.00 0.00 0.00 64 1005.6
20260504182942 41 136 0.0 0.0 0.00 0.00 0.00 63 1005.7
20260504181441 40 214 0.0 0.0 0.00 0.00 0.00 66 1005.4
20260504174441 39 320 0.0 0.0 0.00 0.00 0.00 67 1005.4
20260504172941 39 130 0.0 0.0 0.00 0.00 0.00 66 1005.4
20260504171441 39 268 0.0 0.0 0.00 0.00 0.00 65 1005.1
20260504081442 36 326 0.0 0.0 0.00 0.00 0.00 68 1001.7
20260504045943 50 321 0.0 0.0 0.00 0.00 0.00 44 1001.3
20260504044443 50 310 0.0 0.0 0.00 0.00 0.00 45 1001.4
20260504042943 50 321 0.0 0.0 0.00 0.00 0.00 44 1001.4
20260504041443 51 334 0.0 0.0 0.00 0.00 0.00 44 1001.5